Temperature
26 27 28 28 28 29 29 29 29 29 29 28 29 29 28 28 27 27 26 26 25 24 23 22 21 21 21 21 21 20 20 20 19 19 19 18 18 18 18 18 18 18 17 17
26 27 28 28 28 27 28 28 28 28 28 28 28 28 29 28 27 27 26 25 25 24 23 22 21 21 21 21 21 21 20 20 20 19 19 19 18 18 17 17 18 18 18 17
26 27 27 27 27 27 27 28 28 28 28 28 28 28 28 28 27 26 26 25 25 24 23 22 22 21 21 21 21 21 20 20 20 20 19 19 18 18 18 18 18 18 18 17
27 27 26 26 27 27 27 28 28 27 27 28 28 28 28 28 27 27 26 25 25 24 23 23 22 22 21 21 21 21 21 20 20 20 19 19 18 18 18 18 18 18 18 17
26 26 26 26 27 27 27 28 27 27 27 28 28 27 29 28 27 27 26 25 24 24 24 23 22 22 21 21 21 21 20 20 20 20 19 19 18 18 18 18 18 18 17 17
27 26 26 27 27 27 27 27 27 27 28 26 27 27 27 28 27 27 26 25 24 23 23 23 22 22 21 21 21 20 20 20 20 20 19 19 18 18 18 18 18 18 17 17
25 26 26 26 26 26 26 26 26 26 26 27 27 27 27 27 27 27 26 25 23 23 23 22 22 22 21 21 21 20 20 20 20 20 19 19 18 18 18 18 18 17 17 17
25 25 26 26 26 26 26 27 26 25 26 27 27 27 27 27 26 25 25 24 23 23 22 22 21 21 21 21 20 20 20 20 20 19 19 19 18 18 18 18 18 17 17 17
25 25 26 26 26 26 26 26 27 27 26 26 27 27 27 26 26 25 24 24 23 22 22 21 21 21 21 20 20 20 20 20 19 19 19 18 18 18 18 18 18 17 17 17
24 24 25 25 26 26 26 27 26 26 25 25 26 26 27 26 26 25 24 23 22 22 21 21 20 20 20 20 20 19 19 19 19 19 19 18 18 18 18 18 18 17 17 17
24 23 24 25 25 25 25 25 25 26 26 25 25 26 27 26 25 25 24 23 22 21 21 20 20 20 20 19 19 19 19 19 19 19 18 18 18 18 18 18 17 17 17 17
23 23 24 24 25 25 25 25 25 24 24 25 26 26 26 26 25 24 24 22 21 21 20 20 20 20 19 19 19 19 19 19 19 18 18 18 18 18 18 17 17 17 17 16
22 22 22 23 24 24 24 25 25 25 25 25 25 25 25 25 24 23 22 22 21 20 20 20 19 19 19 19 19 19 19 19 19 18 18 18 18 17 17 17 17 16 16 16
21 21 22 22 23 24 24 24 24 25 25 24 25 25 25 25 24 23 22 21 20 19 19 19 19 18 18 18 18 18 18 18 18 18 18 17 17 17 17 17 17 16 16 16
21 21 22 22 23 23 23 23 24 24 24 24 25 25 25 24 24 22 21 21 20 19 19 18 18 18 18 18 17 17 18 17 17 17 18 17 17 17 17 16 16 16 15 15
20 20 21 21 22 22 22 23 23 23 24 24 24 24 25 24 22 22 21 20 19 19 18 18 18 18 17 17 17 17 17 17 17 17 17 17 17 16 16 16 16 16 15 15
19 19 20 21 22 22 22 23 23 23 23 23 23 24 24 23 22 21 20 20 19 18 18 17 17 17 17 17 17 17 17 17 17 17 16 16 16 16 16 16 15 15 15 15
18 18 19 20 20 20 22 22 22 22 23 23 23 23 23 22 21 20 19 19 18 18 17 17 17 16 17 16 16 16 16 16 16 16 16 16 16 16 15 15 15 15 15 14
18 18 19 20 20 21 21 21 21 21 22 22 22 22 21 21 20 20 19 18 17 17 16 16 16 16 16 16 16 16 16 16 16 16 16 15 15 15 15 15 14 14 14 14
18 18 18 19 19 19 21 21 20 20 20 21 21 20 20 20 21 21 18 17 17 16 16 16 16 16 16 16 16 16 16 16 16 16 15 15 15 15 15 15 14 14 14 14
18 17 18 18 18 20 20 19 19 20 20 19 19 18 19 19 19 18 17 16 16 16 16 16 16 16 16 15 15 15 15 15 15 15 15 15 15 14 14 14 14 14 13 13
18 18 18 18 18 19 18 19 19 18 17 17 17 17 17 17 17 16 16 16 15 15 15 15 15 15 15 15 15 15 15 15 15 15 15 14 14 14 14 14 14 13 13 13
18 18 19 18 18 17 17 17 16 16 16 16 16 16 16 16 16 16 16 15 15 15 15 15 15 15 15 15 15 15 15 15 14 14 14 14 14 14 13 13 13 13 13 13
18 17 17 17 18 17 16 16 16 15 15 15 15 15 15 15 15 15 15 15 14 14 14 14 14 15 14 14 14 15 14 14 14 13 14 14 13 13 13 13 13 13 13 13
17 16 16 16 17 16 16 15 15 14 14 15 15 15 15 15 15 14 14 14 14 14 14 14 14 14 14 14 14 14 14 13 13 13 13 13 13 13 12 12 12 12 12 12
16 16 16 16 16 16 16 15 14 14 14 14 14 14 14 14 14 14 14 14 13 13 14 14 14 14 14 13 13 13 13 13 13 13 13 12 12 12 12 12 12 12 12 12
Wind_Speed
8 10 10 9 10 8 8 9 9 7 5 7 8 7 6 5 6 7 8 9 9 9 8 8 10 10 9 9 9 9 8 7 6 5 5 4 4 3 2 2 1 1 1 1
9 11 8 6 7 9 10 11 10 7 5 7 8 9 6 6 6 6 7 8 8 8 7 8 9 10 11 11 10 10 9 9 8 6 5 4 3 3 2 1 2 2 2 2
12 4 6 8 9 10 11 11 9 7 6 8 8 10 8 7 6 5 6 7 8 8 8 8 9 11 11 11 11 10 10 10 9 8 6 5 4 3 3 3 2 2 2 2
10 6 7 9 9 10 10 8 9 9 9 8 8 9 8 7 7 6 6 6 7 8 8 8 8 9 10 11 10 10 10 10 9 9 7 7 5 4 3 3 2 2 2 2
8 7 9 10 9 9 7 5 8 10 11 11 9 9 7 7 7 7 6 6 5 6 6 7 6 6 7 9 9 10 10 10 9 9 9 8 6 4 3 3 3 2 2 2
7 5 7 7 6 7 6 6 7 10 11 13 11 10 8 6 6 6 6 6 5 5 5 5 5 5 5 6 8 9 10 9 10 10 10 8 7 5 4 3 3 3 2 2
9 9 7 6 8 9 10 9 8 10 11 11 8 10 6 2 3 5 4 5 5 5 5 5 6 6 6 6 7 9 10 10 10 10 10 9 8 7 6 5 4 3 2 2
9 9 8 7 9 8 12 13 10 9 10 8 8 9 5 1 1 3 3 4 5 5 4 5 5 6 6 6 7 8 9 9 9 9 9 8 8 6 5 4 3 3 2 2
6 6 5 6 7 10 11 13 12 11 10 10 8 7 5 3 3 3 3 4 4 4 3 4 4 5 5 6 6 7 9 9 9 9 8 7 7 5 4 4 4 3 2 2
4 6 6 6 7 8 10 10 9 11 11 11 10 10 7 6 5 4 3 3 2 2 3 3 3 3 4 5 6 6 6 8 9 9 7 6 6 6 5 4 3 2 2 2
5 6 7 8 9 9 9 11 10 11 11 10 10 6 1 3 4 4 3 2 2 2 2 3 2 3 4 4 5 6 6 7 7 8 8 7 6 5 5 4 4 3 2 2
4 5 8 9 6 6 10 11 12 11 11 11 11 6 3 2 2 3 2 2 2 2 2 3 3 3 4 4 5 5 6 6 7 7 7 7 6 6 5 4 4 3 2 2
3 4 7 8 9 9 10 11 12 12 10 11 12 6 5 3 1 2 2 2 2 2 2 3 3 3 4 4 4 5 5 5 6 6 7 7 6 6 5 4 3 3 3 2
4 6 9 9 5 5 9 11 12 13 12 12 13 9 5 3 3 2 2 2 2 2 2 3 4 4 3 3 3 4 4 5 5 6 6 6 6 5 5 4 3 3 3 3
4 7 8 9 9 9 10 12 12 14 14 14 11 10 7 4 3 3 2 2 2 2 3 3 3 4 3 3 3 3 3 5 5 6 6 5 5 5 5 4 4 3 3 3
4 6 7 9 9 8 11 12 13 13 12 13 12 11 5 4 3 3 2 2 2 3 3 3 3 4 4 3 3 3 3 4 5 5 5 5 5 5 4 4 4 3 3 2
5 6 7 9 8 9 12 11 12 11 11 11 11 8 4 4 4 3 2 2 2 2 3 3 3 3 4 4 4 4 4 5 5 5 5 5 5 4 4 4 3 3 3 2
7 7 6 7 7 10 3 1 5 7 8 8 8 6 5 5 4 3 2 2 2 2 2 2 3 3 4 4 4 4 4 5 5 5 4 4 4 4 4 4 3 3 3 2
8 8 7 7 9 9 4 3 4 7 6 5 6 5 4 3 4 3 0 1 1 1 2 2 3 3 4 4 5 4 4 5 5 5 4 4 4 4 4 3 3 3 2 2
7 9 8 8 9 8 2 0 2 5 7 1 3 3 3 3 6 2 1 2 2 1 2 2 3 4 4 4 5 5 5 5 5 5 4 4 3 3 3 3 3 2 2 2
8 8 10 11 10 6 2 1 3 7 2 3 3 3 4 4 4 3 3 2 2 1 1 2 2 3 4 4 5 5 5 5 4 4 4 3 3 3 3 2 2 2 2 2
7 7 8 8 10 6 2 1 3 4 5 4 4 4 4 5 4 3 3 2 2 2 2 2 3 3 3 4 5 5 4 4 4 4 4 3 3 2 2 2 2 2 2 2
6 5 5 5 4 2 2 4 5 5 6 5 5 5 5 6 5 4 3 2 2 2 2 3 3 3 3 3 4 5 4 4 4 4 4 3 2 2 2 2 2 3 3 2
5 4 5 6 6 4 5 5 5 5 5 6 6 6 6 6 5 4 3 2 2 3 3 3 4 4 3 3 3 4 4 5 5 4 4 4 3 2 2 2 2 2 2 2
6 4 6 8 7 6 5 4 5 6 6 6 6 5 5 5 4 3 2 2 2 2 3 3 4 4 3 3 3 4 4 5 5 4 3 4 3 2 1 1 1 2 1 1
7 8 8 7 5 6 6 7 8 7 7 7 6 6 4 3 3 3 2 2 1 2 3 3 3 4 4 4 4 4 4 5 4 4 3 3 3 3 3 2 1 2 0 2
Wind_Direction
196 214 217 218 228 249 249 241 233 226 213 238 240 240 227 209 217 217 209 202 200 203 208 204 197 194 190 188 188 189 189 183 184 185 189 188 190 194 198 199 190 210 229 221
203 219 221 221 222 234 238 237 232 219 218 244 241 243 227 221 219 223 217 210 207 202 202 198 196 194 194 192 193 193 194 189 190 189 192 193 196 198 190 196 177 204 218 229
219 202 197 215 216 225 232 238 237 232 224 229 244 235 218 210 212 222 224 217 211 206 201 197 195 196 197 195 196 197 195 191 193 190 188 186 187 193 188 193 192 196 212 213
224 214 210 218 220 228 231 235 244 236 233 228 227 250 210 203 208 212 218 215 214 211 205 199 194 196 199 199 197 196 192 191 190 189 191 193 198 203 196 198 186 184 204 221
205 204 216 224 223 227 241 240 238 237 240 250 230 253 233 189 220 221 213 213 216 214 207 199 191 191 194 196 194 190 188 189 189 193 192 197 206 207 199 192 185 209 203 221
220 207 228 231 227 220 224 221 224 231 238 240 235 244 247 213 231 236 210 208 208 202 196 192 182 180 181 184 188 185 185 186 186 192 195 199 202 203 205 204 204 213 213 214
213 210 210 224 221 203 218 223 220 220 225 236 220 236 247 251 255 254 225 201 197 191 183 179 180 179 176 178 185 184 184 186 187 189 193 196 199 200 203 215 213 230 236 232
218 211 199 211 226 221 217 228 235 239 239 237 210 233 235 205 258 250 210 187 182 184 175 170 176 180 177 177 182 185 184 186 186 187 191 194 198 203 205 215 229 233 252 262
233 218 177 209 227 234 219 227 245 256 261 254 230 235 220 199 207 201 195 184 178 177 172 170 170 174 176 177 179 181 179 178 181 183 186 191 192 200 202 207 219 230 241 251
252 241 210 200 211 219 239 230 230 239 245 247 241 237 234 207 218 206 187 184 177 167 175 174 171 173 172 172 175 178 178 179 180 179 183 185 184 188 196 203 202 221 230 236
255 241 217 206 216 219 212 219 231 240 246 250 249 241 174 191 201 196 183 171 169 170 174 179 176 166 160 162 168 176 178 179 181 179 178 180 181 183 192 199 200 202 217 218
233 252 242 229 223 240 231 231 227 234 238 247 257 249 116 151 193 195 176 162 157 155 170 167 163 154 155 159 168 173 178 181 183 179 175 175 175 178 187 186 187 189 205 219
212 234 240 222 206 210 224 229 232 237 242 243 247 238 136 150 191 204 198 171 154 153 171 165 154 152 157 161 168 172 176 179 182 176 171 169 173 175 184 185 182 189 201 204
243 243 251 257 263 244 233 231 232 236 238 240 244 249 233 224 230 226 228 217 186 171 173 176 167 162 157 159 170 172 169 167 169 170 167 166 172 179 183 185 182 192 197 198
238 247 252 273 280 264 253 244 238 238 246 252 251 256 259 255 251 243 233 214 203 197 196 188 189 179 171 166 164 160 165 163 167 171 169 168 172 178 181 182 184 190 197 197
235 254 253 258 259 257 256 250 244 242 245 250 255 260 261 258 256 243 227 204 208 215 220 214 206 196 190 184 177 165 161 162 167 172 168 165 169 174 176 178 177 183 189 193
225 241 252 251 252 258 247 241 236 236 240 248 254 262 260 249 253 252 245 229 223 222 221 221 221 212 202 190 181 173 170 163 163 165 163 163 170 174 175 175 172 177 180 179
234 240 245 253 252 244 241 224 245 242 242 251 262 270 260 261 261 253 255 257 243 234 228 228 225 208 197 184 179 175 165 161 161 161 161 163 171 174 170 171 174 180 182 183
220 226 240 242 246 251 233 218 243 246 245 263 266 271 273 271 233 224 273 312 273 247 243 238 229 206 186 182 179 171 166 161 163 162 164 170 173 170 168 173 177 179 185 194
200 217 236 239 247 247 228 86 295 255 239 289 274 262 270 261 244 238 340 317 300 263 233 222 207 190 181 184 176 175 174 166 167 170 171 168 174 173 169 172 184 190 199 208
199 212 229 240 244 253 19 346 227 233 276 14 321 295 279 274 296 317 312 288 285 265 217 186 185 185 182 182 178 182 181 177 171 165 158 153 158 163 166 171 181 195 209 214
224 226 225 235 240 243 47 242 254 321 343 320 315 308 300 296 298 301 303 283 240 223 206 182 178 177 176 179 183 183 181 172 155 147 144 145 151 163 155 167 190 197 198 204
231 246 246 240 255 7 332 310 311 310 305 307 304 301 295 290 288 289 282 247 207 202 197 177 169 159 164 175 175 173 162 153 147 145 142 141 147 159 171 183 192 204 208 220
238 247 245 252 259 277 293 300 306 308 299 302 300 295 287 283 284 285 275 229 205 203 193 173 164 161 164 170 162 151 149 152 154 155 150 146 149 170 183 211 220 226 225 231
267 244 246 252 266 279 282 307 321 321 313 307 305 298 286 279 275 272 266 242 227 203 185 169 161 166 169 165 157 150 149 154 163 166 164 165 169 172 194 221 266 252 275 283
250 248 252 265 284 284 296 316 316 310 309 306 302 299 290 267 250 253 255 252 227 195 172 161 162 163 161 161 161 159 159 159 165 174 175 182 187 182 201 206 210 90 140 80
Height
1504 1501 1498 1496 1496 1495 1495 1496 1498 1497 1497 1499 1499 1499 1499 1502 1504 1505 1507 1510 1512 1515 1517 1518 1520 1522 1524 1525 1527 1529 1531 1532 1533 1535 1536 1536 1537 1537 1538 1538 1537 1537 1537 1537
1501 1498 1495 1497 1498 1498 1498 1499 1497 1497 1497 1499 1498 1497 1497 1499 1501 1503 1505 1508 1510 1512 1514 1515 1517 1519 1521 1523 1525 1527 1529 1530 1532 1533 1534 1535 1536 1537 1537 1537 1536 1537 1537 1536
1496 1494 1496 1498 1499 1500 1498 1497 1496 1497 1497 1496 1498 1498 1495 1496 1499 1502 1504 1505 1507 1509 1511 1513 1514 1517 1519 1521 1522 1524 1526 1528 1529 1531 1533 1534 1535 1536 1536 1536 1536 1536 1536 1536
1493 1494 1497 1497 1497 1497 1498 1494 1495 1497 1500 1496 1497 1501 1491 1491 1495 1499 1501 1503 1504 1506 1508 1510 1512 1514 1516 1518 1520 1522 1523 1525 1527 1529 1530 1532 1533 1534 1535 1535 1536 1535 1535 1535
1492 1493 1495 1496 1495 1496 1494 1493 1494 1495 1497 1497 1495 1500 1490 1488 1493 1494 1497 1500 1502 1504 1505 1507 1510 1512 1514 1515 1517 1519 1521 1523 1525 1527 1528 1530 1532 1533 1534 1534 1534 1534 1534 1534
1490 1493 1494 1493 1494 1495 1494 1496 1495 1494 1493 1504 1495 1499 1494 1486 1490 1491 1494 1498 1500 1502 1504 1505 1508 1510 1512 1513 1515 1516 1518 1520 1522 1524 1526 1528 1529 1531 1532 1533 1533 1533 1533 1533
1492 1491 1492 1493 1493 1494 1494 1497 1503 1504 1502 1498 1489 1495 1492 1485 1487 1490 1492 1495 1498 1500 1502 1503 1505 1507 1509 1510 1512 1514 1516 1517 1519 1521 1523 1525 1527 1529 1530 1531 1532 1532 1532 1532
1492 1492 1488 1490 1491 1491 1491 1492 1501 1506 1501 1492 1489 1493 1486 1485 1489 1491 1492 1494 1497 1498 1500 1501 1503 1505 1506 1508 1510 1512 1513 1515 1517 1520 1522 1524 1525 1527 1529 1529 1530 1531 1531 1531
1488 1489 1486 1488 1489 1488 1489 1488 1483 1490 1491 1494 1487 1486 1484 1485 1488 1490 1492 1494 1495 1497 1498 1500 1502 1503 1505 1506 1508 1510 1511 1513 1516 1518 1520 1522 1524 1525 1526 1527 1528 1529 1528 1528
1488 1493 1486 1487 1488 1488 1485 1484 1488 1491 1502 1502 1492 1489 1485 1484 1486 1488 1491 1492 1494 1496 1498 1499 1500 1502 1503 1504 1506 1508 1510 1512 1513 1516 1518 1521 1522 1524 1524 1525 1526 1526 1525 1526
1490 1494 1488 1486 1487 1485 1487 1487 1487 1486 1486 1496 1498 1489 1476 1481 1484 1486 1489 1492 1494 1495 1496 1497 1499 1500 1501 1503 1505 1506 1508 1510 1512 1514 1516 1518 1520 1521 1522 1523 1523 1523 1523 1524
1493 1492 1489 1484 1482 1482 1482 1483 1486 1494 1494 1489 1489 1488 1477 1481 1484 1486 1489 1492 1493 1495 1495 1496 1497 1499 1500 1502 1503 1505 1506 1508 1510 1512 1514 1516 1517 1519 1520 1521 1521 1521 1521 1522
1495 1496 1497 1489 1487 1485 1484 1482 1482 1484 1486 1488 1490 1488 1479 1482 1485 1487 1489 1491 1493 1494 1495 1496 1497 1498 1499 1500 1502 1503 1505 1506 1508 1510 1511 1513 1515 1516 1517 1518 1518 1519 1519 1519
1497 1494 1494 1492 1484 1482 1484 1483 1481 1482 1485 1485 1483 1481 1478 1480 1483 1487 1489 1491 1492 1494 1494 1495 1496 1497 1499 1499 1500 1501 1503 1504 1506 1508 1509 1511 1512 1514 1515 1516 1517 1517 1517 1517
1495 1493 1489 1486 1483 1482 1482 1482 1481 1481 1480 1481 1479 1478 1478 1480 1482 1486 1488 1490 1491 1493 1494 1495 1496 1496 1497 1498 1499 1500 1501 1503 1504 1506 1507 1509 1510 1512 1513 1514 1515 1515 1516 1516
1495 1494 1491 1489 1483 1483 1483 1480 1479 1479 1478 1478 1477 1478 1476 1480 1483 1485 1487 1489 1490 1492 1493 1493 1494 1495 1496 1496 1497 1498 1500 1501 1503 1504 1506 1507 1508 1510 1511 1512 1513 1513 1514 1514
1494 1496 1494 1488 1482 1482 1483 1476 1476 1476 1475 1477 1478 1477 1477 1480 1482 1485 1487 1488 1489 1490 1491 1491 1492 1493 1494 1495 1495 1497 1498 1500 1501 1503 1504 1506 1507 1508 1509 1510 1511 1511 1512 1512
1495 1495 1492 1487 1488 1492 1478 1474 1474 1475 1475 1475 1476 1477 1478 1481 1483 1484 1486 1487 1487 1488 1489 1489 1490 1491 1492 1493 1494 1495 1497 1498 1500 1501 1503 1504 1505 1506 1507 1508 1509 1509 1510 1510
1493 1495 1491 1488 1486 1480 1475 1475 1476 1477 1476 1477 1476 1478 1479 1480 1481 1483 1485 1485 1486 1487 1487 1487 1488 1489 1490 1491 1493 1494 1495 1497 1498 1500 1501 1502 1504 1505 1505 1506 1506 1507 1508 1508
1492 1492 1491 1487 1489 1486 1477 1476 1478 1479 1478 1477 1477 1479 1480 1480 1477 1479 1483 1483 1484 1484 1485 1485 1486 1488 1488 1490 1491 1493 1494 1495 1497 1498 1499 1501 1502 1503 1503 1504 1505 1505 1506 1506
1489 1490 1489 1486 1486 1477 1477 1478 1479 1482 1478 1480 1479 1480 1480 1480 1480 1482 1482 1482 1482 1483 1483 1484 1484 1486 1487 1488 1490 1491 1493 1494 1495 1496 1498 1499 1500 1501 1502 1503 1503 1503 1504 1505
1483 1483 1485 1484 1486 1483 1479 1479 1480 1480 1481 1480 1480 1480 1481 1480 1480 1480 1480 1480 1480 1481 1481 1482 1483 1484 1486 1487 1488 1489 1491 1492 1493 1494 1496 1497 1499 1500 1501 1501 1502 1502 1503 1503
1480 1480 1477 1480 1481 1481 1481 1482 1482 1482 1481 1480 1480 1480 1479 1479 1478 1478 1478 1478 1479 1479 1480 1481 1481 1482 1484 1485 1487 1487 1489 1490 1491 1492 1493 1496 1497 1499 1500 1500 1500 1501 1501 1502
1480 1482 1481 1481 1479 1480 1481 1481 1480 1480 1480 1479 1478 1478 1477 1477 1476 1476 1476 1476 1477 1478 1478 1479 1480 1481 1482 1484 1485 1486 1487 1488 1490 1491 1492 1494 1496 1498 1499 1499 1500 1500 1500 1500
1480 1481 1480 1480 1480 1479 1479 1480 1480 1479 1478 1477 1476 1476 1475 1475 1475 1475 1475 1475 1476 1476 1477 1477 1478 1480 1481 1482 1484 1485 1486 1487 1488 1490 1491 1493 1495 1496 1497 1497 1498 1498 1498 1498
1480 1480 1480 1478 1479 1479 1479 1479 1478 1478 1476 1475 1474 1474 1473 1473 1473 1473 1473 1474 1474 1475 1475 1476 1477 1478 1479 1481 1482 1483 1484 1485 1486 1488 1489 1491 1492 1494 1495 1496 1496 1496 1496 1496